Location: Unspecified
(0.0000°N, 0.0000°E)
Time: 23:58:40
(UTC+00:00)

Explorer 7 - All Passes

Search period start: 12 December 2018 00:00
Search period end: 22 December 2018 00:00
Orbit: 485 x 681 km, 50.3° (Epoch: 12 December)

Date Brightness Start Highest point End Pass type
(mag) Time Alt. Az. Time Alt. Az. Time Alt. Az.
12 Dec - 05:16:17 10° SSE 05:18:04 13° SE 05:19:53 10° E visible
12 Dec - 06:54:51 10° WSW 06:58:22 31° NW 07:02:02 10° N daylight
12 Dec - 17:17:16 10° N 17:21:10 24° NE 17:24:56 10° ESE daylight
12 Dec - 18:57:45 10° WNW 19:01:36 25° SW 19:05:18 10° S visible
13 Dec - 05:19:57 10° S 05:23:15 27° SE 05:26:41 10° ENE visible
13 Dec - 07:01:22 10° W 07:03:38 15° NW 07:05:56 10° NNW daylight
13 Dec - 17:21:44 10° NNW 17:26:24 48° NE 17:30:51 10° SE daylight
13 Dec - 19:04:50 10° WSW 19:06:48 12° SW 19:08:43 10° SSW visible
14 Dec - 05:24:37 10° SSW 05:28:25 64° SE 05:32:23 10° NE visible
14 Dec - 17:26:45 10° NW 17:31:35 82° SW 17:36:13 10° SE daylight
15 Dec - 05:29:52 10° SW 05:33:36 51° NW 05:37:30 10° NNE visible
15 Dec - 15:53:14 10° NNE 15:56:14 16° NE 15:59:11 10° E daylight
15 Dec - 17:32:15 10° WNW 17:36:46 39° SW 17:41:05 10° SSE daylight
16 Dec - 03:56:05 10° SSE 03:58:32 16° SE 04:01:01 10° E visible
16 Dec - 05:35:45 10° WSW 05:38:50 23° NW 05:42:00 10° N daylight
16 Dec - 15:57:11 10° N 16:01:30 31° NE 16:05:41 10° ESE daylight
16 Dec - 17:38:26 10° W 17:41:56 20° SW 17:45:22 10° S daylight
17 Dec - 04:00:13 10° SSW 04:03:43 35° SE 04:07:18 10° ENE visible
17 Dec - 05:43:19 10° WNW 05:44:06 10° NW 05:44:54 10° NW daylight
17 Dec - 16:01:52 10° NNW 16:06:42 63° NE 16:11:24 10° SE daylight
18 Dec - 04:05:06 10° SW 04:08:53 89° SE 04:12:47 10° NE visible
18 Dec - 14:30:27 10° NE 14:31:18 10° NE 14:32:08 10° ENE daylight
18 Dec - 16:07:03 10° NW 16:11:53 64° SW 16:16:35 10° SSE daylight
19 Dec - 04:10:34 10° WSW 04:14:05 37° NW 04:17:42 10° NNE visible
19 Dec - 14:32:56 10° N 14:36:35 21° NE 14:40:11 10° E daylight
19 Dec - 16:12:45 10° WNW 16:17:04 31° SW 16:21:16 10° S daylight
20 Dec - 02:36:06 10° S 02:39:00 21° SE 02:41:55 10° ENE night (unlit)
20 Dec - 04:16:48 10° W 04:19:19 17° NW 04:21:52 10° N night (unlit)
20 Dec - 14:37:12 10° NNW 14:41:48 40° NE 14:46:19 10° ESE daylight
20 Dec - 16:19:14 10° W 16:22:16 16° SW 16:25:14 10° SSW daylight
21 Dec - 02:40:33 10° SSW 02:44:11 48° SE 02:47:52 10° NE night (unlit)
21 Dec - 14:42:04 10° NW 14:47:00 81° NE 14:51:49 10° SE daylight
